Ypsilanti, MI

11:04 PM EST on November 21, 2017 (GMT -0500)
Willow Run

Weather History for KYIP - August, 2014

Change the Weather History Date:

Saturday, August 9, 2014

  Actual Average Record
Temperature  
Mean Temperature 69 °F -  
Max Temperature 86 °F 83 °F 96 °F (1949)
Min Temperature 54 °F 62 °F 46 °F (1999)
Cooling Degree Days 4    
Growing Degree Days 19 (Base 50)    
Moisture  
Dew Point 55 °F    
Average Humidity 60    
Maximum Humidity 86    
Minimum Humidity 33    
Precipitation  
Precipitation 0.00 in - - ()
Sea Level Pressure  
Sea Level Pressure 30.12 in    
Wind  
Wind Speed 5 mph (ENE)    
Max Wind Speed 15 mph    
Max Gust Speed 21 mph    
Visibility 9 miles    
Events      
Averages and records for this station are not official NWS values.
T = Trace of Precipitation, MM = Missing Value Source: NWS Daily Summary

Daily Weather History Graph

Daily Weather History Graph

Search for Another Location

Airport or City:

Trip Planner

Search our weather history database for the weather conditions in past years. The results will help you decide how hot, cold, wet, or windy it might be!

Date:

Astronomy

Aug. 09, 2014 Rise Set
Actual Time 6:35 AM EDT 8:43 PM EDT
Civil Twilight 6:04 AM EDT 9:14 PM EDT
Nautical Twilight 5:26 AM EDT 9:51 PM EDT
Astronomical Twilight 4:44 AM EDT 10:33 PM EDT
Moon 7:43 PM EDT (8/9) 5:14 AM EDT (8/9)
Length of Visible Light 15h 09m
Length of Day
14h 08m
Waxing Gibbous, 98% of the Moon is Illuminated
Aug 9
Waxing Gibbous
Aug 10
Full
Aug 17
Last Quarter
Aug 25
New
Sep 2
First Quarter

Hourly Weather History & Observations

Time (EDT) Temp. Heat Index Dew Point Humidity Pressure Visibility Wind Dir Wind Speed Gust Speed Precip Events Conditions
1:53 AM 59.0 °F - 53.1 °F 81% 30.12 in 10.0 mi Calm Calm - N/A   Clear
2:53 AM 57.9 °F - 52.0 °F 81% 30.11 in 10.0 mi NNE 4.6 mph - N/A   Clear
3:53 AM 59.0 °F - 53.1 °F 81% 30.11 in 10.0 mi Calm Calm - N/A   Clear
4:53 AM 57.9 °F - 53.1 °F 84% 30.12 in 7.0 mi Calm Calm - N/A   Clear
5:53 AM 57.9 °F - 53.1 °F 84% 30.13 in 3.0 mi Calm Calm - N/A   Haze
6:53 AM 54.0 °F - 50.0 °F 86% 30.14 in 5.0 mi NNE 4.6 mph - N/A   Clear
7:53 AM 62.1 °F - 57.0 °F 84% 30.14 in 8.0 mi NE 3.5 mph - N/A   Clear
8:53 AM 68.0 °F - 60.1 °F 76% 30.14 in 9.0 mi NNE 8.1 mph - N/A   Partly Cloudy
9:53 AM 75.0 °F - 60.1 °F 60% 30.14 in 10.0 mi ENE 9.2 mph - N/A   Clear
10:53 AM 79.0 °F - 60.1 °F 52% 30.13 in 10.0 mi ENE 13.8 mph 20.7 mph N/A   Clear
11:53 AM 81.0 °F 81.3 °F 59.0 °F 47% 30.13 in 10.0 mi ENE 12.7 mph - N/A   Scattered Clouds
1:53 PM 84.0 °F 82.5 °F 53.1 °F 34% 30.13 in 10.0 mi ENE 10.4 mph - N/A   Clear
2:53 PM 84.9 °F 83.2 °F 53.1 °F 33% 30.12 in 10.0 mi ENE 15.0 mph - N/A   Clear
3:53 PM 84.0 °F 82.6 °F 54.0 °F 35% 30.11 in 10.0 mi ENE 8.1 mph - N/A   Clear
4:53 PM 84.9 °F 83.7 °F 55.9 °F 37% 30.10 in 10.0 mi East 11.5 mph 19.6 mph N/A   Partly Cloudy
5:53 PM 82.9 °F 82.0 °F 55.0 °F 38% 30.09 in 10.0 mi ESE 11.5 mph - N/A   Clear
6:53 PM 82.0 °F 81.2 °F 53.1 °F 37% 30.08 in 10.0 mi East 9.2 mph - N/A   Clear
7:53 PM 79.0 °F - 54.0 °F 42% 30.08 in 10.0 mi East 8.1 mph - N/A   Clear
8:53 PM 72.0 °F - 54.0 °F 53% 30.09 in 10.0 mi East 4.6 mph - N/A   Clear
9:53 PM 66.0 °F - 55.9 °F 70% 30.10 in 10.0 mi ENE 3.5 mph - N/A   Clear
11:53 PM 66.9 °F - 57.0 °F 70% 30.11 in 10.0 mi ENE 5.8 mph - N/A   Clear